Starlink 1221

operational
NORAD ID: 45227 Int'l Des: 2020-012 Owner: SPXS Country: US Constellation: starlink
LEOCIRCULAR

关于 Starlink 1221

正在加载描述...

实时位置

正在加载3D地球...

即将过境

高度历史

Altitude vs Time

uPlot chart will show altitude changes over time

两行轨道根数

1 45227U 20012BB 25306.27077934 .00012926 00000-0 36447-3 0 9997
2 45227 53.0654 151.0770 0002281 0.6733 359.4272 15.36777417317087
Epoch: Nov 2, 2025 • Age: 34 hours

当前状态

高度 456.4 km
速度 7.64 km/s
星下点 -8.54°S, 157.14°W
发射日期 Feb 17, 2020
运行时间 5.7 years
类型 internet

技术详情

分类 Payload
质量 260.00 kg
干质量 248.00 kg
总质量 260.00 kg
长度 0.20 m
直径 2.80 m
跨度 9.00 m
形状 Box + pan
制造商 SPXS
平台类型 Starlink
阶段状态 In Orbit
所有者/国家 SPXS/US

大型星座

Loading constellations...